Location: Unspecified
(0.0000°N, 0.0000°E)
Time: 21:34:44
(UTC+00:00)

Hubble Space Telescope - Pass Details

Date: 18 May 2021
Orbit: 535 x 539 km, 28.5° (Epoch: 20 June)

Event Time Altitude Azimuth Distance (km) Brightness Sun altitude
Exits shadow 03:52:06 10° 0° (N) 1,770 3.6 -29.1°
Drops below altitude 10° 03:52:13 10° 2° (N) 1,789 3.7 -29.1°
Sets 03:55:29 0° 29° (NNE) 2,657 5.0 -28.3°
